This is the latest recevied weather packets stored in our database for station/object AI5ON. If no packets are shown the sender has not sent any weather packets the latest 10 day(s).
| Time | Temp. | Humidity | Pressure | Rain* | Wind** | Luminosity | Snow |
|---|---|---|---|---|---|---|---|
| 1788038662 | 35° C | 44% | 1014.7 hPa | 0 mm | - | 620 W/m² | - |
| 1788038361 | 35° C | 49% | 1014.8 hPa | 0 mm | - | 601 W/m² | - |
| 1788038057 | 35° C | 45% | 1014.8 hPa | 0 mm | - | 620 W/m² | - |
| 1788037757 | 35° C | 45% | 1015 hPa | 0 mm | - | 652 W/m² | - |
| 1788037452 | 35° C | 48% | 1014.9 hPa | 0 mm | - | 670 W/m² | - |
| 1788037151 | 35.56° C | 46% | 1014.9 hPa | 0 mm | - | 690 W/m² | - |
| 1788036851 | 35° C | 47% | 1015.1 hPa | 0 mm | - | 698 W/m² | - |
| 1788036548 | 35° C | 47% | 1015.2 hPa | 0 mm | - | 704 W/m² | - |
| 1788036243 | 35° C | 47% | 1015 hPa | 0 mm | - | 719 W/m² | - |
| 1788035938 | 35.56° C | 45% | 1015.1 hPa | 0 mm | - | 735 W/m² | - |
| 1788035638 | 35° C | 46% | 1015.2 hPa | 0 mm | - | 747 W/m² | - |
| 1788035333 | 35° C | 45% | 1015.4 hPa | 0 mm | - | 757 W/m² | - |
| 1788035029 | 35° C | 46% | 1015.5 hPa | 0 mm | - | 764 W/m² | - |
| 1788034725 | 35° C | 44% | 1015.4 hPa | 0 mm | - | 780 W/m² | - |
| 1788034421 | 35° C | 42% | 1015.8 hPa | 0 mm | - | 806 W/m² | - |
| 1788034116 | 35° C | 46% | 1015.7 hPa | 0 mm | - | 825 W/m² | - |
| 1788033814 | 34.44° C | 52% | 1015.7 hPa | 0 mm | - | 831 W/m² | - |
| 1788033510 | 34.44° C | 49% | 1015.7 hPa | 0 mm | - | 857 W/m² | - |
| 1788033204 | 35° C | 49% | 1015.8 hPa | 0 mm | - | 245 W/m² | - |
| 1788032900 | 35° C | 44% | 1015.8 hPa | 0 mm | - | 889 W/m² | - |
| 1788032600 | 35.56° C | 46% | 1015.8 hPa | 0 mm | - | 234 W/m² | - |
| 1788032295 | 35° C | 47% | 1016.1 hPa | 0 mm | - | 879 W/m² | - |
| 1788031990 | 35° C | 48% | 1016.2 hPa | 0 mm | - | 918 W/m² | - |
| 1788031685 | 35° C | 46% | 1016.2 hPa | 0 mm | - | 912 W/m² | - |
| 1788031385 | 35.56° C | 44% | 1016.2 hPa | 0 mm | - | 939 W/m² | - |
* Rain latest hour (hover to see other rain measurements)
** Current wind speed in m/s (hover to see current wind gust speed)